Register  |  Login Retro Game Room  |  Board  |  Downloads  |  Memberlist  |  Video Game Room Staff  |  About Us  |  Help Center  
  Views: 2,728,403,083     08-05-21 12:50 AM  

Posts by Fancdew on the board: (527 posts found)
Post id Post# Words Posted on Thread
#1351923 527 14 02-04-18 11:53 PM #100178 - Free Computer Repair/Advice!
#1351055 526 10 01-05-18 02:07 AM #7932 - Movie ABC Game
#1351054 525 34 01-05-18 02:01 AM #96528 - Official NFL 2017 REGULAR SEASON Discussion Thread!!! - Discuss here!
#1351053 524 13 01-05-18 01:59 AM #75603 - Rate song above you
#1351052 523 12 01-05-18 01:55 AM #24198 - What is The Last GΛMΣ U BΞΑT?
#1351051 522 15 01-05-18 01:52 AM #100256 - Game of Thrones ending
#1351050 521 13 01-05-18 01:51 AM #86004 - which is the most common way in which you say "hello"?
#1351049 520 33 01-05-18 01:50 AM #90231 - Do you still like XP?
#1351048 519 35 01-05-18 01:48 AM #34048 - What are you doing tomorrow?
#1351047 518 20 01-05-18 01:47 AM #41371 - The Vizzed Family Tree
#1351046 517 23 01-05-18 01:42 AM #99154 - So 3DS is officially ruined for Nintendo.
#1351045 516 67 01-05-18 01:40 AM #96217 - Your Preferred Anti-virus?
#1351044 515 19 01-05-18 01:36 AM #100067 - CompTIA
#1351043 514 23 01-05-18 01:35 AM #100232 - "Swatting" Results in its First Death
#1351042 513 35 01-05-18 01:34 AM #98620 - Your Opinion on "Copyright"?
#1351041 512 14 01-05-18 01:33 AM #98134 - How many Vizzedians would be willing to blacklist this horrible airline for life?
#1350997 511 28 01-04-18 06:54 PM #99157 - How do you get your music?
#1350996 510 10 01-04-18 06:53 PM #93059 - Favorite Book?
#1350995 509 31 01-04-18 06:52 PM #99170 - Parents Taking Kids to R-rated Movies
#1350994 508 22 01-04-18 06:51 PM #98867 - Adult Swim pulls off best April Fools prank
#1350992 507 54 01-04-18 06:45 PM #84792 - Would you respect a Transgendered person?
#1350991 506 5 01-04-18 06:41 PM #99546 - Should students use tablets or textbooks?
#1350990 505 216 01-04-18 06:39 PM #98521 - Your thoughts on marriage?
#1350989 504 30 01-04-18 06:33 PM #97403 - Are you considered "normal"?
#1350987 503 21 01-04-18 06:32 PM #100146 - Is it weird to eat out alone?
#1350985 502 14 01-04-18 06:27 PM #100223 - Tour de Vizzed: Winter 2018 = EX Palen Wins!
#1350954 501 22 01-04-18 12:09 AM #98942 - Where do you get your news?
#1350951 500 22 01-03-18 11:01 PM #14797 - Throw a random object at the user below you!
#1350950 499 26 01-03-18 10:59 PM #68471 - You are the last videogame character you played as, and the apocolypse is upon us
#1350948 498 5 01-03-18 10:51 PM #98410 - (Another) attempt to write a book.
#1350947 497 11 01-03-18 10:50 PM #99616 - I'm writing a book!
#1350946 496 10 01-03-18 10:49 PM #15020 - Whats the 1st thing that comes to your mind when you see the username above you?
#1350945 495 28 01-03-18 10:48 PM #26574 - I ban you because ________
#1350944 494 19 01-03-18 10:46 PM #98300 - On a scale of 1-10...
#1350943 493 11 01-03-18 10:43 PM #11541 - Post Count Brag Thread
#1350941 492 20 01-03-18 10:42 PM #74332 - Contribution Points Brag Thread
#1350936 491 19 01-03-18 10:00 PM #72551 - Type the username above yours with your eyes closed.
#1350935 490 12 01-03-18 09:57 PM #100204 - What were your favorite movies of 2017
#1350934 489 10 01-03-18 09:56 PM #43541 - Whats your favorite TV show of all time?
#1350902 488 29 01-03-18 06:23 PM #100246 - Abortion Opinions?e.
#1350894 487 547 01-03-18 05:49 PM #100249 - (Story Name yet to be Decided)
#1350893 486 501 01-03-18 05:48 PM #100248 - Joy
#1350891 485 369 01-03-18 05:44 PM #100245 - What do you think about vaccines?
#1350890 484 21 01-03-18 05:40 PM #100247 - D&D ClubDS
#1350888 483 16 01-03-18 05:35 PM #100246 - Abortion Opinions?e.
#1350885 482 3 01-03-18 05:33 PM #100245 - What do you think about vaccines?
#1350879 481 11 01-03-18 05:25 PM #64506 - What time did u go to bed last night/this morning?
#1350870 480 34 01-03-18 04:37 PM #100244 - Best Pokemon Game to Start With?
#1350869 479 23 01-03-18 04:35 PM #25789 - What Anime are you watching right now? Or were watching?
#1350868 478 29 01-03-18 04:32 PM #100223 - Tour de Vizzed: Winter 2018 = EX Palen Wins!
Pages: 1 2 3 4 5 6 7 8 9 10 11
  Site Info  Sponsor  
  Vizzed.com © was created, designed, coded by & is property of:
David Auchampach
All Rights Reserved 2002 - 2015
Powered By: Vizzed Board, Acmlm Board and Adeon Dev.
Affiliates: get-your-rom.com - mybiblegames.com -  

Page rendered in 0.217 seconds.